Home > Weather > San Antonio > Past weeks

Flag for USA Past Weather in San Antonio, Texas, USA — Yesterday and Last 2 Weeks

Now
89 °F

Partly sunny.


Feels Like: 95 °F
Forecast: 76 / 91 °F
Wind: 7 mph from Southeast

Location: San Antonio International Airport

Current Time: Jul 28, 2016 at 1:26:22 PM

Latest Report: Jul 28, 2016 at 12:51 PM


Visibility: 10 mi

Pressure: 29.95 "Hg

Humidity: 55%

Dew Point: 71 °F

Location of San AntonioLocation

Past Weather in San Antonio — Graph

°F

San Antonio Temperature Yesterday

Maximum temperature yesterday: 88 °F (at 2:02 PM)
Minimum temperature yesterday: 74 °F (at 2:51 PM)
Average temperature yesterday: 79 °F

High & Low Weather Summary for the Past Weeks

 TemperatureHumidityPressure
High99 °F (Jul 14, 4:51 PM)94% (Jul 26, 1:51 AM)30.15 "Hg (Jul 26, 1:51 AM)
Low73 °F (Jul 26, 1:51 AM)27% (Jul 15, 5:51 PM)29.80 "Hg (Jul 25, 6:51 PM)
Average85 °F65%29.97 "Hg
* Reported Jul 13 11:51 AM — Jul 28 11:51 AM, San Antonio, Weather by CustomWeather, © 2016

Note: Actual official high and low records may vary slightly from our data, if they occured in-between our weather recording intervals... More about our weather records

Advertising

San Antonio Weather History for the Previous 24 Hours

Scroll right to see more
 ConditionsComfort  
Time TempWeatherWind HumidityBarometerVisibility
11:51 AM
Thu, Jul 28
89 °FScattered clouds.6 mph61%29.96 "Hg10 mi
10:51 AM86 °FBroken clouds.7 mph67%29.97 "Hg10 mi
9:51 AM83 °FBroken clouds.13 mph77%29.98 "Hg10 mi
8:51 AM80 °FPartly sunny.9 mph85%29.97 "Hg10 mi
7:51 AM79 °FPartly sunny.6 mph88%29.97 "Hg8 mi
6:51 AM78 °FMostly cloudy.3 mph90%29.95 "Hg10 mi
5:51 AM78 °FPassing clouds.6 mph87%29.95 "Hg10 mi
4:51 AM77 °FPassing clouds.6 mph90%29.93 "Hg10 mi
3:51 AM76 °FOvercast.No wind91%29.93 "Hg10 mi
2:51 AM76 °FPassing clouds.No wind88%29.93 "Hg10 mi
12:51 AM77 °FPassing clouds.3 mph82%29.93 "Hg10 mi
11:51 PM
Wed, Jul 27
77 °FPassing clouds.6 mph85%29.93 "Hg10 mi
10:51 PM77 °FPassing clouds.No wind88%29.92 "Hg10 mi
9:51 PM76 °FPassing clouds.3 mph91%29.90 "Hg10 mi
8:51 PM77 °FPartly sunny.7 mph90%29.87 "Hg10 mi
7:51 PM80 °FPartly sunny.3 mph81%29.86 "Hg10 mi
6:51 PM79 °FPartly sunny.3 mph82%29.86 "Hg10 mi
5:51 PM76 °FLight rain. Cloudy.6 mph91%29.89 "Hg7 mi
4:51 PM75 °FLight rain. Mostly cloudy.7 mph90%29.92 "Hg7 mi
3:51 PM74 °FLight rain. More clouds than sun.6 mph91%29.93 "Hg8 mi
2:59 PM74 °FThunderstorms. Fog.5 mph88%30.02 "Hg2 mi
2:51 PM74 °FThunderstorms. More clouds than sun.6 mph88%29.98 "Hg2 mi
2:02 PM88 °FThundershowers. Scattered clouds.8 mph63%29.97 "Hg10 mi
1:51 PM87 °FScattered clouds.6 mph65%29.92 "Hg10 mi
Weather by CustomWeather, © 2016

See weather overviewHow to use our weather pages